{"data":{"norad_id":63991,"epoch":"2026-05-25T00:30:14.543424Z","epoch_age_seconds":76427,"freshness":"FRESH","line1":"1 63991U 25100K   26145.02100166  .00014429  00000+0  67403-3 0  9992","line2":"2 63991  97.3638 218.3434 0011927  54.6308 305.6039 15.19846838 57109","mean_motion":15.19846838,"eccentricity":0.0011927,"inclination_deg":97.3638,"raan_deg":218.3434,"arg_perigee_deg":54.6308,"mean_anomaly_deg":305.6039,"bstar":0.00067403,"rev_number":5710,"period_min":94.746389175302,"perigee_km":498.09202113212,"apogee_km":514.51416452956,"semimajor_km":6884.4400928308,"source":"CELESTRAK","updated_at":"2026-05-25T13:38:04.149808Z"}}